Regional Weather Roundup
Issued by NWS

Home | Current Version | Previous Version | Text Only | Print | Product List | Glossary Off
Versions: 1 2 3 4 5 6 7 8 9 10 11 12 13 14 15 16 17 18 19 20 21 22 23 24 25 26 27 28 29 30 31 32 33 34 35 36 37 38 39 40 41 42 43 44 45 46 47 48 49 50

000
ASUS43 KMPX 190910
RWRMN
WEATHER ROUNDUP FOR MINNESOTA
NATIONAL WEATHER SERVICE TWIN CITIES/CHANHASSEN MN
400 AM CDT SAT APR 19 2014


NOTE: "FAIR" INDICATES FEW OR NO CLOUDS BELOW 12,000 FEET WITH NO
SIGNIFICANT WEATHER AND/OR OBSTRUCTIONS TO VISIBILITY. N/A MEANS
CURRENT SKY AND/OR WEATHER CONDITIONS ARE NOT AVAILABLE.

MNZ060>063-068>070-191000-
   Twin Cities Metro

CITY           SKY/WX    TMP DP  RH WIND       PRES   REMARKS
TWIN CITIES    MOCLDY    44  29  55 SE17      30.16R
ST PAUL        PTCLDY    45  28  51 SE18      30.17S
CRYSTAL        CLOUDY    47  28  47 SE17G31   30.13S
BLAINE         MOCLDY    46  28  49 SE17      30.14S
EDEN PRAIRIE   MOCLDY    46  30  53 SE15G25   30.14R
LAKEVILLE      CLEAR     39  30  70 SE8       30.16S
SOUTH ST PAUL  PTCLDY    48  29  48 SE15G21   30.15F
LAKE ELMO      FAIR      43  28  56 SE14G20   30.18S
$$
MNZ001>005-007-008-013>017-022>024-027-028-191000-
   Northwest Minnesota

CITY           SKY/WX    TMP DP  RH WIND       PRES   REMARKS
BEMIDJI        LGT RAIN  36  28  73 SE22G32   29.88F
HALLOCK        CLOUDY    39  30  70 SE24G30   29.75F
ROSEAU         CLOUDY    34  30  86 SE22G31   29.86F WCI  22
WARROAD        CLOUDY    36  30  80 SE21G30   29.90F
THIEF RVR FALL CLOUDY    39  28  65 SE20G25   29.81S
CROOKSTON      MOCLDY    46  34  61 S20       29.77S
FOSSTON        CLOUDY    43  28  56 SE25G37   29.81R
DETROIT LAKES  LGT RAIN  41  34  75 S31G41    29.81F
MOORHEAD       CLOUDY    48  36  61 SE31G43   29.76R
PARK RAPIDS    LGT RAIN  42  31  64 SE28G38   29.92F
$$
MNZ006-009>011-018-025>026-191000-
   North Central Minnesota

CITY           SKY/WX    TMP DP  RH WIND       PRES   REMARKS
BAUDETTE       LGT RAIN  34  29  82 SE24G33   29.94F WCI  21
FLAG ISLAND    LGT RAIN  34  30  86 SE17G24   29.93F WCI  23
INTL FALLS     LGT SNOW  33  27  78 SE21G36   30.08F WCI  21
WASKISH        MIX PCPN  34  30  86 E21G29    29.92F WCI  22
BIG FORK       FLURRIES  36  25  64 SE14G24   30.04F
LONGVILLE      CLOUDY    39  23  52 SE14G24   29.99F
GRAND RAPIDS   CLOUDY    36  21  55 SE18G28   30.06F
CRANE LAKE     CLOUDY    32  25  74 SE3       30.20F
ORR            CLOUDY    36  19  51 SE12G17   30.10F
COOK           CLOUDY    36  21  55 E9G17     30.14F
$$
MNZ012-019>021-037-191000-
   Northeast Minnesota

CITY           SKY/WX    TMP DP  RH WIND       PRES   REMARKS
DULUTH         CLOUDY    33  24  69 E17       30.20F WCI  22
ELY            CLOUDY    34  25  69 SE15G23   30.22F WCI  24
HIBBING        LGT RAIN  37  21  52 SE21G29   30.14F
EVELETH        CLOUDY    36  25  64 SE12G18   30.17F
DULUTH HARBOR  CLOUDY    34  30  86 NE17      30.26F WCI  23
TWO HARBORS    CLOUDY    32  25  74 E14       30.25F WCI  22
SILVER BAY     CLOUDY    30  28  93 NE12G17   30.29F WCI  21
GRAND MARAIS     N/A     33  27  78 NE10      30.40R WCI  25
G MARAIS ARPRT CLOUDY    28  21  74 E6        30.34S WCI  22
$$
MNZ029>031-032-039>041-046>048-054>057-064-191000-
   West Central Minnesota

CITY           SKY/WX    TMP DP  RH WIND       PRES   REMARKS
FERGUS FALLS   CLOUDY    46  30  53 SE26      29.81S
WHEATON        CLOUDY    52  39  62 SE28G35   29.81F
MORRIS         CLOUDY    45  36  70 SE33G41   29.83F
ALEXANDRIA     LGT RAIN  42  33  70 SE26G36   29.93F
ELBOW LAKE     MOCLDY    48  35  59 SE25G39   29.84S
WADENA         LGT RAIN  41  30  65 SE25G33   29.89F
GLENWOOD       CLOUDY    45  36  70 SE21G26   29.96R
APPLETON       CLOUDY    52  36  54 SE25      29.87S
BENSON         DRIZZLE   46  36  66 S22G31    29.92F
ORTONVILLE     LGT RAIN  46  37  71 SE22      29.83F
MADISON        CLOUDY    50  39  66 SE26G32   29.85F
WILLMAR        FAIR      45  34  65 SE28      29.97F
$$
MNZ033>034-036-042>043-049>051-058-059-191000-
   Central Minnesota

CITY           SKY/WX    TMP DP  RH WIND       PRES   REMARKS
ST CLOUD       MOCLDY    43  27  53 SE9G22    30.06F
SAUK CENTRE    RAIN      43  32  66 SE22G30   29.98F
PAYNESVILLE    MOCLDY    44  31  60 SE16G25   30.01F
AITKIN         CLOUDY    45  23  42 SE17G23   30.05F
PINE RIVER     CLOUDY    43  27  52 SE21G31   30.03F
BRAINERD       LGT RAIN  47  25  42 SE22G30   30.01F
STAPLES        CLOUDY    43  28  56 SE16G24   29.96S
LONG PRAIRIE   MOCLDY    39  28  65 E13G21    30.01S
LITTLE FALLS   CLOUDY    41  28  60 SE13G23   30.04F
LITCHFIELD     PTCLDY    45  32  61 SE15G23   30.03F
BUFFALO        PTCLDY    44  29  55 SE14G23   30.10F
MAPLE LAKE     PTCLDY    44  32  62 SE14G20   30.08F
$$
MNZ037-044-045-052-053-191000-
   East Central Minnesota

CITY           SKY/WX    TMP DP  RH WIND       PRES   REMARKS
PRINCETON      MOCLDY    43  28  56 E14       30.11F
MORA           CLOUDY    39  25  56 SE8       30.16F
CAMBRIDGE      CLOUDY    45  28  53 SE13G18   30.13S
RUSH CITY      CLOUDY    42  26  53 SE8G20    30.17F
MOOSE LAKE     CLOUDY    34  23  64 E6        30.16F WCI  29
HINCKLEY       CLOUDY    41  27  56 E9        30.18F
CLOQUET        CLOUDY    34  25  69 E13       30.18F WCI  25
MCGREGOR       CLOUDY    37  23  56 SE16G25   30.11F
$$
MNZ071>073-080-081-089-090-097-098-191000-
   Southwest Minnesota

CITY           SKY/WX    TMP DP  RH WIND       PRES   REMARKS
MONTEVIDEO     CLOUDY    48  36  61 S20G29    29.91F
GRANITE FALLS  CLOUDY    46  34  65 SE28      29.94F
CANBY          CLOUDY    53  41  64 SE21      29.86F
MARSHALL       CLOUDY    48  36  61 S22       29.91F
REDWOOD FALLS  CLOUDY    47  33  58 SE26G33   29.98F
OLIVIA         CLOUDY    43  34  70 SE20G26   29.97F
PIPESTONE      CLOUDY    52  39  62 S21       29.94F
WINDOM         MOCLDY    48  37  66 SE10G18   30.04R
WORTHINGTON    MOCLDY    48  34  57 S17G24    30.01R
JACKSON        MOCLDY    50  36  57 S17       30.02S
TRACY          CLOUDY    49  38  66 S16G22    29.96F
SLAYTON        MOCLDY    49  38  67 S16G22    29.99S
$$
MNZ065>067-074>077-082>085-091>093-191000-
   South Central Minnesota

CITY           SKY/WX    TMP DP  RH WIND       PRES   REMARKS
MANKATO        PTCLDY    45  32  61 SE18      30.12R
NEW ULM        MOCLDY    46  34  61 SE18      30.07R
ST JAMES       MOCLDY    46  32  57 SE14      30.08R
FAIRMONT       MOCLDY    48  28  46 SE23G29   30.07S
GLENCOE        PTCLDY    46  31  57 SE16G22   30.09S
FARIBAULT      PTCLDY    46  28  49 SE18      30.15S
OWATONNA       PTCLDY    43  32  65 SE21      30.14S
WASECA         PTCLDY    43  32  65 SE17G28   30.14R
ALBERT LEA     PTCLDY    43  34  70 SE16G23   30.14S
$$
MNZ078>079-086>088-094>096-191000-
   Southeast Minnesota

CITY           SKY/WX    TMP DP  RH WIND       PRES   REMARKS
ROCHESTER      CLEAR     41  31  67 SE16G26   30.20S
RED WING       CLEAR     45  28  53 SE20      30.20F
STANTON        CLEAR     45  30  55 SE14G23   30.15S
DODGE CENTER   CLEAR     45  34  65 SE20G26   30.18R
WINONA         CLEAR     43  32  65 SE14      30.28S
AUSTIN         CLEAR     43  34  70 SE16G22   30.17S
PRESTON        PTCLDY    41  33  73 SE15G24   30.23F
$$
ABBREVIATIONS USED IN REMARKS
   TC - TEMPERATURES IN CELSIUS
  WCI - WIND CHILL INDEX
   HX - HEAT INDEX
  VSB - VISIBILITY
$$


USA.gov is the U.S. government's official web portal to all federal, state and local government web resources and services.